Tracking 17925 objects as of 22-January-2017
HD Live streaming from Space Station
objects crossing your sky now

NAVSTAR 37 (USA 117)

Track NAVSTAR 37 (USA 117) now!
NAVSTAR 37 (USA 117) is classified as:


NORAD ID: 23833
Int'l Code: 1996-019A
Perigee: 20,701.8 km
Apogee: 20,753.3 km
Inclination: 54.4 °
Period: 739.9 minutes
Semi major axis: 27098 km
RCS: 4.1981 m2 (large)
Launch date: March 28, 1996
Source: United States (US)
Launch site: AIR FORCE EASTERN TEST RANGE (AFETR)
PRN:
Your satellite tracking list
Your tracking list is empty





NASA's NSSDC Master Catalog

Two Line Element Set (TLE):
1 23833U 96019A   17021.33271132 -.00000062  00000-0  00000+0 0  9995
2 23833  54.3735  38.3059 0009500 289.0354 203.8637  1.94618834152079
Source of the keplerian elements: AFSPC